Regional Weather Roundup
Issued by NWS

Home | Current Version | Previous Version | Text Only | Print | Product List | Glossary Off
Versions: 1 2 3 4 5 6 7 8 9 10 11 12 13 14 15 16 17 18 19 20 21 22 23 24 25 26 27 28 29 30 31 32 33 34 35 36 37 38 39 40 41 42 43 44 45 46 47 48 49 50

000
ASUS43 KMPX 280801
RWRMN
WEATHER ROUNDUP FOR MINNESOTA
NATIONAL WEATHER SERVICE TWIN CITIES/CHANHASSEN MN
200 AM CST SAT FEB 28 2015


NOTE: "FAIR" INDICATES FEW OR NO CLOUDS BELOW 12,000 FEET WITH NO
SIGNIFICANT WEATHER AND/OR OBSTRUCTIONS TO VISIBILITY. N/A MEANS
CURRENT SKY AND/OR WEATHER CONDITIONS ARE NOT AVAILABLE.

MNZ060>063-068>070-280900-
   Twin Cities Metro

CITY           SKY/WX    TMP DP  RH WIND       PRES   REMARKS
TWIN CITIES    CLEAR      3  -3  76 S7        30.53S WCI  -9
ST PAUL        CLEAR      1  -3  83 SE6       30.56S WCI -10
CRYSTAL        CLEAR      4  -2  76 S5        30.51S WCI  -5
BLAINE         CLEAR      7   1  78 S5        30.50F WCI  -2
EDEN PRAIRIE   FAIR       1  -5  75 S7        30.51S WCI -12
SOUTH ST PAUL  CLEAR      1  -4  79 SE3       30.54S
LAKE ELMO      FAIR       1  -4  78 S7        30.54S WCI -11
$$
MNZ001>005-007-008-013>017-022>024-027-028-280900-
   Northwest Minnesota

CITY           SKY/WX    TMP DP  RH WIND       PRES   REMARKS
BEMIDJI        FAIR      -2  -7  80 S5        30.33S WCI -13
HALLOCK        MOCLDY     1  -6  71 S14       30.28F WCI -17
ROSEAU         PTCLDY     0  -8  71 S9        30.29F WCI -16
WARROAD        PTCLDY     3  -4  72 SW10      30.28F WCI -12
THIEF RVR FALL MOCLDY     3  -2  78 S6        30.30S WCI  -8
CROOKSTON      FAIR       7   0  72 S14       30.33F WCI -10
FOSSTON        PTCLDY     3  -2  78 S16       30.31F WCI -16
DETROIT LAKES  PTCLDY     3  -2  78 S8        30.34F WCI -10
MOORHEAD       PTCLDY     7   1  78 S15       30.35F WCI -11
PARK RAPIDS    PTCLDY    -3  -9  75 S7        30.34F WCI -16
MAHNOMEN       FAIR       4  -3  72 S13       30.33S WCI -13
$$
MNZ006-009>011-018-025>026-280900-
   North Central Minnesota

CITY           SKY/WX    TMP DP  RH WIND       PRES   REMARKS
BAUDETTE       PTCLDY    -2  -8  76 S5        30.29F WCI -12
FLAG ISLAND    PTCLDY    -4  -9  77 SE7       30.27F WCI -18
INTL FALLS     PTCLDY   -12 -18  74 SW5       30.33S WCI -24
WASKISH        PTCLDY     1  -6  71 CALM      30.32F
BIG FORK       PTCLDY   -11 -18  70 S5        30.35S WCI -23
LONGVILLE      CLEAR      0  -6  78 S3        30.38S
GRAND RAPIDS   CLEAR      3  -6  66 S6        30.36R WCI  -8
CRANE LAKE     FAIR     -17 -22  76 CALM      30.39R
ORR            PTCLDY     0 -11  60 CALM      30.33S
COOK           PTCLDY     0  -9  65 SW3       30.36S
WALKER         FAIR       1  -5  74 SW6       30.35S WCI -10
$$
MNZ012-019>021-037-280900-
   Northeast Minnesota

CITY           SKY/WX    TMP DP  RH WIND       PRES   REMARKS
DULUTH         CLEAR      3  -6  66 SW8       30.39S WCI -10
ELY            CLEAR     -2 -11  65 SW3       30.36S
HIBBING        PTCLDY   -16 -22  74 CALM      30.37S
EVELETH        PTCLDY   -11 -17  77 CALM      30.38S
DULUTH HARBOR  CLEAR      5  -4  66 SW8       30.49R WCI  -8
TWO HARBORS    CLEAR      1  -8  66 SW3       30.39S
SILVER BAY     CLEAR      1  -9  60 CALM      30.38F
GRAND MARAIS     N/A      6  -9  50 NW3       30.42S
G MARAIS ARPRT PTCLDY     3 -11  51 W8        30.31S WCI -10
$$
MNZ029>031-032-039>041-046>048-054>057-064-280900-
   West Central Minnesota

CITY           SKY/WX    TMP DP  RH WIND       PRES   REMARKS
FERGUS FALLS   PTCLDY     3  -4  72 S10       30.41F WCI -12
WHEATON        CLEAR      0  -6  78 SE12      30.39F WCI -18
MORRIS         CLEAR      0  -6  78 SE10      30.39S WCI -17
ALEXANDRIA     CLEAR      3  -3  76 S9        30.38F WCI -12
ELBOW LAKE     FAIR       3  -3  78 S13       30.37F WCI -15
WADENA         CLEAR     -4  -8  84 CALM      30.37S
APPLETON       CLEAR      3  -2  78 S10       30.41F WCI -12
BENSON         CLEAR      1  -4  78 S7        30.42S WCI -11
ORTONVILLE       N/A     -2  -8  78 SE8       30.38F WCI -17
MADISON        CLEAR      0  -6  78 S7        30.41F WCI -13
WILLMAR        FAIR       1  -6  71 S5        30.45S WCI  -8
$$
MNZ033>034-036-042>043-049>051-058-059-280900-
   Central Minnesota

CITY           SKY/WX    TMP DP  RH WIND       PRES   REMARKS
ST CLOUD       CLEAR      0  -5  79 S7        30.47S WCI -13
SAUK CENTRE    FAIR      -1  -5  83 S6        30.42S WCI -13
PAYNESVILLE    CLEAR      0  -4  82 SE7       30.45S WCI -13
AITKIN         CLEAR     -2  -9  71 S2        30.41R
PINE RIVER     PTCLDY    -8 -11  84 SE3       30.41F
BRAINERD       CLEAR     -4  -8  83 S5        30.42R WCI -15
STAPLES        FAIR      -2  -6  84 SE3       30.39S
LONG PRAIRIE   FAIR       0  -4  85 S3        30.41S
LITTLE FALLS   CLEAR      1  -4  78 SE3       30.45R
LITCHFIELD     CLEAR      0  -4  85 CALM      30.46F
MAPLE LAKE     CLEAR      2  -2  84 S3        30.49S
$$
MNZ037-044-045-052-053-280900-
   East Central Minnesota

CITY           SKY/WX    TMP DP  RH WIND       PRES   REMARKS
PRINCETON      CLEAR      1  -4  78 S3        30.48S
MORA           CLEAR     -2  -6  84 CALM      30.49S
RUSH CITY      MOCLDY     1  -4  81 S3        30.50R
MOOSE LAKE     CLEAR     -4  -8  84 CALM      30.44R
HINCKLEY       FAIR       1  -2  85 S3        30.48R
CLOQUET        CLEAR      0  -8  71 SW6       30.41S WCI -12
MCGREGOR       PTCLDY     1  -4  78 S5        30.42S WCI  -8
$$
MNZ071>073-080-081-089-090-097-098-280900-
   Southwest Minnesota

CITY           SKY/WX    TMP DP  RH WIND       PRES   REMARKS
MONTEVIDEO     CLEAR      0  -4  85 S7        30.44S WCI -13
GRANITE FALLS  CLEAR     -3  -8  81 SE9       30.46S WCI -19
CANBY          FAIR       9   0  68 SW9       30.40F WCI  -4
MARSHALL       CLEAR      3  -6  66 S12       30.43R WCI -13
REDWOOD FALLS  CLEAR     -3  -9  75 S8        30.46F WCI -18
OLIVIA         CLEAR      0  -6  78 S7        30.45F WCI -13
PIPESTONE      CLEAR     -2  -8  78 S9        30.38S WCI -18
WINDOM         CLEAR      0  -6  78 CALM      30.44S
WORTHINGTON    CLEAR     21 -11  23 S10       30.43F WCI  10
JACKSON        PTCLDY     1  -6  71 S9        30.45S WCI -14
TRACY          CLEAR      4  -3  73 S9        30.42S WCI -11
SLAYTON        CLEAR      1  -5  76 S6        30.41S WCI -11
$$
MNZ065>067-074>077-082>085-091>093-280900-
   South Central Minnesota

CITY           SKY/WX    TMP DP  RH WIND       PRES   REMARKS
MANKATO        CLEAR     -2 N/A N/A S8        30.50F WCI -17
NEW ULM        CLEAR     -4  -9  77 S8        30.48F WCI -19
ST JAMES       CLEAR     -2  -8  78 S9        30.50F WCI -18
FAIRMONT       PTCLDY    -8 N/A N/A S7        30.48S WCI -22
GLENCOE        CLEAR      1  -3  83 S7        30.49S WCI -12
FARIBAULT      PTCLDY    -6  -9  84 S5        30.52F WCI -17
OWATONNA       LGT SNOW  -2  -8  78 S10       30.51S WCI -19
WASECA         CLEAR     -4  -8  84 S7        30.53S WCI -18
ALBERT LEA     PTCLDY    -4  -8  84 S3        30.51F
$$
MNZ078>079-086>088-094>096-280900-
   Southeast Minnesota

CITY           SKY/WX    TMP DP  RH WIND       PRES   REMARKS
ROCHESTER      PTCLDY   -10 -14  82 S8        30.52R WCI -26
RED WING       CLEAR     -8 -11  84 CALM      30.56S
STANTON        PTCLDY     0  -6  78 S8        30.52S WCI -15
DODGE CENTER   PTCLDY    -4  -8  84 S9        30.50S WCI -20
WINONA         PTCLDY    -4  -8  84 CALM      30.62R
AUSTIN         PTCLDY    -8 -11  84 CALM      30.53S
PRESTON        PTCLDY    -6 -10  83 SW8       30.54S WCI -22
$$
ABBREVIATIONS USED IN REMARKS
   TC - TEMPERATURES IN CELSIUS
  WCI - WIND CHILL INDEX
   HX - HEAT INDEX
  VSB - VISIBILITY
$$


USA.gov is the U.S. government's official web portal to all federal, state and local government web resources and services.